Tracking 29892 objects as of 21-Nov-2024
HD Live streaming from Space Station
objects crossing your sky now

STARLINK-31504

Track STARLINK-31504 now!
10-day predictions
STARLINK-31504 is classified as:


NORAD ID: 59303
Int'l Code: 2024-056H
Perigee: 450.5 km
Apogee: 451.6 km
Inclination: 43.0 °
Period: 93.5 minutes
Semi major axis: 6822 km
RCS: Unknown
Launch date: March 24, 2024
Source: United States (US)
Launch site: AIR FORCE EASTERN TEST RANGE (AFETR)
Your satellite tracking list
Your tracking list is empty




NASA's NSSDC Master Catalog

Two Line Element Set (TLE):
1 59303U 24056H   24325.71944932  .00002777  00000-0  73623-4 0  9990
2 59303  43.0034  45.0236 0000847 270.5034  89.5726 15.40741206 38464
Source of the keplerian elements: AFSPC